ELEKTRO-L 2

Last updated on Mon Sep 07 2026 00:02:40 GMT+0000 (Coordinated Universal Time)

1 41105U 15074A 26249.30374762 -.00000132 00000+0 00000+0 0 9998 2 41105 6.8915 69.4901 0001937 191.0194 179.7131 1.00272010 39325
UTC large
Height (km)
Speed (km/s)
/
Latitude / Longitude
Inclination (degrees)
Orbital Period (minutes)
Azimuth
Elevation
Range (km)
Doppler Factor

Next 0 passes for location: London (51.5072 / 0.1276)

No passes found over London.
ELEKTRO-L 2